www.pogodaiklimat.ru

Погода и климат >> Архив погоды >> Австралия >> Западная Австралия >> Леинстер


ПОГОДА в Леинстере

  • Прогноз погоды в Леинстере
  • Монитор погоды в Леинстере

АРХИВ ПОГОДЫ в Леинстере

Время (UTC), дата Ветер
(напр.,м/с)
 
Видим.   Явления Облачность Т
(С)
Тd
(С)
f
(%)
Тe
(С)
Тes
(С)
Комфортность P
(гПа)
Po
(гПа)
Тmin
(С)
Tmax
(С)
R
(мм)
R24
(мм)
S
(см)
10 14.04 СВ 4 н/о в посл. час дождь {туман} 5/5 1500 м
[]
+18.8 +18.8 100 +20 +20 1009.3 953.3
12 14.04 С 4 н/о н/о +18.8 +18.6 99 +20 +20 1011.3 955.2
13 14.04 СЗ 2 н/о {туман} 8/8 600 м
[]
+18.8 +18.8 100 +21 +21 комфорт 1011.5 955.4 +25.3
15 14.04 СЗ 2 н/о н/о +19.1 +19.1 100 +22 +22 комфорт 1011.5 955.4
16 14.04 СЗ 3 н/о {туман} 10/10 600 м
[]
+19.3 +19.1 99 +22 +22 комфорт 1011.3 955.2
18 14.04 ЮЗ 3 н/о н/о +18.9 +18.6 98 +21 +21 комфорт 1010.6 954.5
19 14.04 З 2 н/о {туман} 10/10 300 м
[]
+18.3 +18.0 98 +20 +20 1011.0 954.9
21 14.04 З 3 н/о н/о +17.3 +17.0 98 +17 +17 1012.0 955.8
22 14.04 З 3 н/о н/о +16.6 +16.4 99 +16 +16 1012.2 956.0
00 15.04 З 4 н/о н/о +18.2 +16.7 91 +18 +18 1013.5 957.2
01 15.04 ЮЗ 4 н/о н/о +19.8 +16.8 83 +22 +22 комфорт 1013.8 957.5 +16.4
03 15.04 З 3 н/о н/о +22.0 +14.6 63 +25 +25 комфорт 1013.3 957.1
04 15.04 ЮЗ 3 н/о н/о +22.6 +14.2 59 +26 +26 жарко 1012.6 956.4
06 15.04 З 3 н/о н/о +24.7 +13.3 49 +27 +27 жарко 1011.1 955.0
07 15.04 З 4 н/о н/о +25.3 +14.1 50 +28 +28 жарко 1011.0 954.9
09 15.04 ЮЗ 3 н/о н/о +24.9 +13.5 49 +27 +27 жарко 1011.1 955.0
10 15.04 Ю 3 н/о н/о +23.5 +14.8 58 +26 +26 жарко 1011.5 955.4
12 15.04 В 1 н/о н/о +20.9 +16.9 78 +26 +26 душно 1012.5 956.3
13 15.04 штиль 0 н/о н/о +19.5 +19.2 98 +22 +22 комфорт 1012.9 956.7 +26.1
15 15.04 ЮЗ 1 н/о н/о +18.1 +17.8 98 +20 +20 1012.6 956.4
16 15.04 З 2 н/о н/о +18.0 +16.0 88 +19 +19 1012.4 956.2
18 15.04 З 2 н/о н/о +16.9 +14.9 88 +17 +17 1012.0 955.8
19 15.04 СЗ 2 н/о н/о +16.2 +15.6 96 +16 +16 1012.0 955.8
21 15.04 З 2 н/о н/о +16.2 +14.7 91 +16 +16 1013.0 956.8
22 15.04 СЗ 2 н/о 5/5 1000 м
[]
+15.9 +14.8 93 +16 +16 1013.5 957.2
00 16.04 З 2 н/о н/о +19.6 +13.5 68 +22 +22 комфорт 1014.7 958.4
01 16.04 З 4 н/о 1/1 1000 м
[]
+21.4 +10.9 51 +23 +27 комфорт 1014.8 958.5 +15.7
03 16.04 З 5 н/о н/о +22.5 +12.7 54 +25 +25 комфорт 1014.6 958.3
04 16.04 З 6 н/о н/о +23.6 +12.9 51 +26 +26 жарко 1013.6 957.3
06 16.04 З 5 н/о н/о +25.5 +10.1 38 +26 +26 жарко 1012.4 956.2
07 16.04 ЮЗ 5 н/о н/о +25.1 +10.2 39 +26 +26 жарко 1012.2 956.0
09 16.04 ЮЗ 5 н/о н/о +24.4 +11.0 43 +26 +26 жарко 1012.9 956.7
10 16.04 ЮЗ 4 н/о н/о +22.4 +12.6 54 +25 +25 комфорт 1013.9 957.6
12 16.04 З 3 н/о н/о +19.9 +13.4 66 +22 +22 комфорт 1015.0 958.7
13 16.04 З 2 н/о н/о +18.5 +14.4 77 +20 +20 1015.5 959.1 +26.3
15 16.04 З 2 н/о н/о +17.5 +14.2 81 +18 +18 1015.8 959.4
16 16.04 ЮЗ 2 н/о н/о +16.7 +14.0 84 +17 +17 1015.7 959.3
18 16.04 Ю 2 н/о н/о +15.7 +14.1 90 +16 +16 1015.7 959.3
19 16.04 Ю 2 н/о н/о +14.6 +14.3 98 +14 +14 1015.5 959.1
21 16.04 Ю 2 н/о н/о +14.6 +14.3 98 +14 +14 1016.7 960.3
22 16.04 Ю 5 н/о н/о +15.1 +13.5 90 +14 +14 1017.7 961.2
00 17.04 ЮВ 7 н/о н/о +17.6 +11.9 69 +17 +17 1019.1 962.5
01 17.04 ЮВ 6 н/о н/о +19.3 +11.1 59 +20 +20 1019.7 963.1 +14.0
03 17.04 В 4 н/о н/о +23.0 +11.4 48 +25 +25 комфорт 1019.3 962.7
04 17.04 В 4 н/о н/о +23.9 +10.9 44 +25 +25 комфорт 1018.6 962.1
06 17.04 СВ 3 н/о н/о +25.8 +10.0 37 +27 +27 жарко 1016.7 960.3
07 17.04 СВ 3 н/о н/о +26.1 +10.3 37 +27 +27 жарко 1016.4 960.0
09 17.04 В 2 н/о н/о +24.8 +9.1 37 +25 +25 комфорт 1016.5 960.1
10 17.04 ЮВ 2 н/о н/о +23.6 +11.3 46 +25 +25 комфорт 1016.7 960.3
12 17.04 ЮВ 3 н/о н/о +21.0 +11.1 53 +24 +24 комфорт 1017.5 961.0
13 17.04 штиль 0 н/о н/о +19.2 +12.7 66 +20 +20 1018.2 961.7 +26.3
15 17.04 В 2 н/о н/о +18.5 +12.3 67 +20 +20 1017.3 960.8
16 17.04 В 2 н/о н/о +17.8 +12.3 70 +18 +18 1016.9 960.5
18 17.04 В 3 н/о н/о +16.1 +13.0 82 +16 +16 1015.9 959.5
19 17.04 В 3 н/о н/о +15.8 +13.3 85 +15 +15 1015.4 959.0
21 17.04 В 4 н/о н/о +16.2 +13.3 83 +16 +16 1015.5 959.1
22 17.04 В 4 н/о 9/0
[]
+16.1 +13.4 84 +15 +15 1015.9 959.5
00 18.04 В 4 н/о н/о +17.8 +13.3 75 +18 +18 1016.5 960.1
01 18.04 СВ 5 н/о 3/0
[]
+20.6 +13.6 64 +23 +26 комфорт 1016.3 959.9 +15.8
03 18.04 СВ 5 н/о н/о +23.0 +12.9 53 +26 +26 жарко 1015.3 958.9
04 18.04 СВ 5 н/о 9/0
[]
+24.8 +13.0 48 +27 +31 жарко 1013.8 957.5
06 18.04 С 5 н/о н/о +27.2 +13.5 43 +29 +29 жарко 1012.2 956.0
07 18.04 С 5 н/о 6/0
[]
+27.7 +13.3 41 +29 +32 жарко 1011.7 955.5
09 18.04 СВ 3 н/о н/о +26.1 +14.2 48 +28 +28 жарко 1010.5 954.4
10 18.04 СВ 3 н/о 5/0
[]
+24.8 +15.1 55 +28 +28 жарко 1011.0 954.9
12 18.04 СВ 3 н/о н/о +23.0 +15.8 64 +27 +27 душно 1011.1 955.0
13 18.04 СВ 3 н/о 10/0
[]
+22.8 +16.1 66 +27 +27 душно 1011.1 955.0 +28.0
15 18.04 С 5 н/о н/о +22.8 +16.1 66 +27 +27 душно 1010.2 954.1
16 18.04 С 6 н/о 10/0
[]
+22.7 +16.3 67 +27 +27 душно 1009.2 953.2
18 18.04 С 6 н/о н/о +22.8 +15.9 65 +27 +27 душно 1008.7 952.7
19 18.04 СЗ 4 н/о 10/0
[]
+21.8 +16.1 70 +26 +26 душно 1008.6 952.6
21 18.04 З 7 н/о н/о +19.2 +12.0 63 +20 +20 1009.9 953.8
22 18.04 З 7 н/о 10/0
[]
+17.5 +12.4 72 +17 +17 1010.8 954.7
00 19.04 З 7 н/о н/о +18.2 +12.2 68 +18 +18 1012.7 956.5
01 19.04 З 8 н/о н/о +18.7 +11.3 62 +19 +19 1013.5 957.2 +16.7
03 19.04 З 8 н/о н/о +20.7 +9.9 50 +22 +22 комфорт 1012.8 956.6
04 19.04 З 7 н/о 1/1 1000 м
[]
+21.7 +9.9 47 +23 +26 комфорт 1012.5 956.3
06 19.04 З 7 н/о н/о +22.4 +9.9 45 +24 +24 комфорт 1012.1 955.9
07 19.04 З 8 н/о 1/1 1000 м
[]
+21.1 +8.4 44 +22 +23 комфорт 1012.3 956.1
09 19.04 ЮЗ 6 н/о н/о +19.6 +7.0 44 +20 +20 1012.7 956.5
10 19.04 ЮЗ 6 н/о н/о +18.0 +5.9 45 +17 +17 1013.6 957.3
12 19.04 ЮЗ 5 н/о н/о +16.2 +4.6 46 +15 +15 1015.8 959.4
13 19.04 ЮЗ 5 н/о н/о +15.4 +4.5 48 +14 +14 1016.5 960.1 +23.5
15 19.04 Ю 4 н/о н/о +13.8 +4.1 52 +12 +12 1016.9 960.5
16 19.04 Ю 5 н/о н/о +12.9 +4.3 56 +11 +11 1016.7 960.3
18 19.04 Ю 6 н/о н/о +11.5 +3.8 59 +9 +9 1017.9 961.4
19 19.04 Ю 5 н/о н/о +10.8 +2.9 58 +8 +8 1018.2 961.7
21 19.04 Ю 5 н/о н/о +9.2 +3.0 65 +6 +6 1019.6 963.0
22 19.04 Ю 3 н/о н/о +8.6 +3.2 69 +6 +6 1019.8 963.2
00 20.04 Ю 5 н/о н/о +10.2 +2.8 60 +7 +7 1021.5 964.8
01 20.04 Ю 5 н/о н/о +12.1 +2.6 52 +10 +10 1022.0 965.3 +8.1
03 20.04 Ю 7 н/о н/о +14.5 -0.4 36 +13 +13 1021.3 964.6
04 20.04 ЮЗ 7 н/о н/о +15.5 -1.5 31 +14 +14 1020.3 963.7
06 20.04 ЮЗ 6 н/о н/о +16.9 -3.2 25 +16 +16 1019.1 962.5
07 20.04 ЮЗ 5 н/о н/о +16.6 -2.5 27 +16 +16 1019.2 962.6
09 20.04 Ю 6 н/о н/о +16.5 -4.1 24 +16 +16 1019.2 962.6
10 20.04 Ю 6 н/о н/о +15.5 -5.0 24 +14 +14 1020.1 963.5
12 20.04 Ю 4 н/о н/о +13.1 -3.2 32 +12 +12 1021.7 965.0
13 20.04 Ю 4 н/о н/о +12.2 -2.0 37 +11 +11 1022.0 965.3 +17.4
15 20.04 Ю 4 н/о н/о +10.7 -1.7 42 +9 +9 1022.1 965.4
16 20.04 Ю 4 н/о н/о +9.8 -1.3 46 +8 +8 1022.1 965.4
18 20.04 ЮВ 3 н/о н/о +8.6 -1.2 50 +7 +7 1022.3 965.6
19 20.04 В 3 н/о н/о +8.1 -0.9 53 +6 +6 1022.2 965.5
21 20.04 ЮВ 3 н/о н/о +7.5 -0.9 55 +5 +5 1022.7 965.9
22 20.04 ЮВ 3 н/о н/о +6.7 -0.5 60 +4 +4 1023.1 966.3
00 21.04 В 5 н/о н/о +10.8 -0.6 45 +9 +9 1024.7 967.8
01 21.04 В 6 н/о н/о +13.4 -0.3 39 +11 +11 1024.6 967.7 +6.4
03 21.04 В 6 н/о н/о +15.9 +0.5 35 +15 +15 1024.0 967.2
04 21.04 В 6 н/о н/о +16.3 -0.4 32 +15 +15 1023.0 966.2
06 21.04 В 5 н/о н/о +18.6 -0.2 28 +18 +18 1021.6 964.9
07 21.04 В 5 н/о н/о +18.7 -0.7 27 +18 +18 1021.1 964.4
09 21.04 В 5 н/о н/о +18.2 -0.1 29 +18 +18 1021.0 964.3

 

Местоположение метеостанции Леинстер (Западная Австралия, Австралия): широта -27.85 долгота 120.70 высота над уровнем моря 498 м.

В архиве по умолчанию представлена погода в Леинстере за последнюю неделю. Архивные данные за месяц целиком и за предыдущие месяцы, начиная с января 2011 года, Вы можете получить, выбрав интересующий диапазон дат из раскрывающегося списка и нажав кнопку "Ввод!".


*Определитесь, кто Вы:
робот инопланетянин человек

Внимание! Время в таблицах - всемирное. Для получения местного времени необходимо прибавить поправку, которая равна 8 ч.

Смотрите также архив погоды в соседних городах и на ближайших метеорологических станциях:

Погода в Леонора аэропорту (Западная Австралия, Австралия) (130 км)
Погода в Лавертоне (Западная Австралия, Австралия) (188 км)
Погода в Микатарре (Западная Австралия, Австралия) (253 км)
Погода в Маунт Магнет аэропорту (Западная Австралия, Австралия) (283 км)
Погода в Калгурли-Боулдере (Западная Австралия, Австралия) (334 км)
Погода в Саутерн Кросс (Западная Австралия, Австралия) (398 км)
Погода в Дауоллину (Западная Австралия, Австралия) (476 км)
Погода в Мораве (Западная Австралия, Австралия) (481 км)
Погода в Норсмане (Западная Австралия, Австралия) (496 км)
Погода в Ньюмане (Западная Австралия, Австралия) (502 км)

Пояснения к столбцам:

Ветер - указаны скорость ветра в м/с - средняя за 10 мин, порывы в срок и между сроками (в фигурных скобках) и направление, откуда дует ветер: С - северный, СВ - северо-восточный, В - восточный, ЮВ - юго-восточный, Ю - южный, ЮЗ - юго-западный, З - западный, СЗ - северо-западный.
Видимость - горизонтальная дальность видимости в метрах или километрах. При видимости от 1 до 10 км при отсутствии осадков обычно наблюдается дымка, при ухудшении видимости до 1 км и менее - туман. В сухую погоду видимость может ухудшаться дымом, пылью или мглою.
Явления - указаны атмосферные явления, наблюдавшиеся в срок или в последний час перед сроком; фигурными скобками обозначены явления, наблюдавшиеся между сроками (за 1-3 часа до срока); квадратными скобками обозначены град или гололедные отложения с указанием их диаметра в мм.
Облачность - указаны через наклонную черту общая и нижняя облачность в баллах и высота нижней границы облаков в метрах; квадратными скобками обозначены формы облаков: Ci - перистые, Cs - перисто-слоистые, Cc - перисто-кучевые, Ac - высококучевые, As - высокослоистые, Sc - слоисто-кучевые, Ns - слоисто-дождевые, Cu - кучевые, Cb - кучево-дождевые. Подробнее классификацию облаков см. в Атласе облаков (PDF).
T - Температура воздуха - температура, измеренная на высоте 2 м над землей.
Td - Температура точки росы - температура, при понижении до которой содержащийся в воздухе водяной пар достигнет насыщения.
f - Относительная влажность воздуха - влажноcть воздуха, измеренная на высоте 2 м над землей.
Te - Эффективная температура - температура, которую ощущает одетый по сезону человек в тени. Характеристика душности погоды. При расчете учитывается влияние влажности воздуха и скорости ветра на теплоощущения человека.
Tes - Эффективная температура на солнце - температура, которую ощущает человек, с поправкой на солнечный нагрев. Характеристика знойности погоды. Зависит от высоты солнца над горизонтом, облачности и скорости ветра. Ночью, в пасмурную погоду, а также при ветре 12 м/с и более поправка равна нулю.
P - Атмосферное давление - приведенное к уровню моря атмосферное давление.
Po - Атмосферное давление - измеренное на уровне метеостанции атмосферное давление.
Tmin - Минимальная температура - минимум температуры воздуха на высоте 2 м над землей.
Tmax - Максимальная температура - максимум температуры воздуха на высоте 2 м над землей.
R - Количество осадков - Количество выпавших осадков за период времени, мм. При наведении курсора мыши на число - период времени, за который выпало указанное количество осадков.
R24 - Количество осадков - Количество выпавших осадков за 24 часа, мм.
S - Снежный покров - Высота снежного покрова, см. При наведении курсора мыши на число - состояние снежного покрова и степень покрытия местности в баллах.